sat.trackr.live / text

‹ back to catalog

STARLINK-37020

NORAD 68144 · 2026-049C

PAYLOAD ACTIVE UNKNOWN

§ Identity

Operator
Country
US
Launch date
2026-03-13
Launch site
AFWTR
Launch vehicle
Mass (kg)
RCS (m²)

Purposes: comms

External: N2YO · Heavens-Above · Gunter

§ Orbital elements

Epoch: 2026-05-24T19:17:52.646784Z

Period
93.91 min
Inclination
97.2850°
Eccentricity
0.0000511
Mean motion
15.33454419 rev/d
Perigee alt
465.2 km
Apogee alt
465.9 km
Semi-major
6,843.7 km
B*
5.3200e-4
RAAN
166.4910°
Arg perigee
117.4611°
Mean anomaly
242.6684°
Rev number
1,131

§ Raw data

STARLINK-370201 68144U 26049C   26144.80408156  .00017144  00000+0  53200-3 0  99922 68144  97.2850 166.4910 0000511 117.4611 242.6684 15.33454419 11318

JSON: /api/v1/satellites/68144 · /tle

For live sub-satellite position, see the globe view (requires WebGL).

§ Visibility from observer

Set your observer location to see the next 7 days of passes ≥ 10°. The values pass through the URL so the page stays shareable.

No JS? Fill the form by hand. The geolocation button needs JavaScript.